Hinckley, MN

8:17 AM CST on December 11, 2019 (GMT -0600)
Hinckley

Weather History for K04W - October, 2019

Change the Weather History Date:

Wednesday, October 23, 2019

  Actual Average (KJMR) Record (KJMR)
Temperature  
Mean Temperature 40 °F -  
Max Temperature 44 °F 54 °F 79 °F (1963)
Min Temperature 35 °F 29 °F 5 °F (1936)
Degree Days  
Heating Degree Days 26    
Moisture  
Dew Point 33 °F    
Average Humidity 78    
Maximum Humidity 93    
Minimum Humidity 61    
Precipitation  
Precipitation 0.00 in - - ()
Sea Level Pressure  
Sea Level Pressure 29.84 in    
Wind  
Wind Speed 8 mph (WNW)    
Max Wind Speed 13 mph    
Max Gust Speed 23 mph    
Visibility 10 miles    
Events Rain    
Averages and records for this station are not official NWS values.
T = Trace of Precipitation, MM = Missing Value Source: NWS Daily Summary

Daily Weather History Graph

Daily Weather History Graph

Search for Another Location

Airport or City:

Astronomy

Oct. 23, 2019 Rise Set
Actual Time 7:39 AM CDT 6:11 PM CDT
Civil Twilight 7:08 AM CDT 6:42 PM CDT
Nautical Twilight 6:33 AM CDT 7:17 PM CDT
Astronomical Twilight 5:59 AM CDT 7:51 PM CDT
Moon 1:34 AM CDT (10/23) 4:24 PM CDT (10/23)
Length of Visible Light 11h 33m
Length of Day
10h 32m
Waning Crescent, 26% of the Moon is Illuminated
Oct 23
Waning Crescent
Oct 27
New
Nov 4
First Quarter
Nov 12
Full
Nov 19
Last Quarter

Hourly Weather History & Observations

Time (CDT) Temp. Windchill Dew Point Humidity Pressure Visibility Wind Dir Wind Speed Gust Speed Precip Events Conditions
12:15 AM 39.2 °F 32.5 °F 35.6 °F 87% 29.63 in 10.0 mi West 10.4 mph - N/A   Overcast
12:16 AM 39.2 °F 32.5 °F 35.6 °F 87% 29.63 in 10.0 mi West 10.4 mph - N/A   Overcast
12:35 AM 39.2 °F 33.6 °F 33.8 °F 81% 29.63 in 10.0 mi West 8.1 mph 19.6 mph N/A   Overcast
12:36 AM 39.2 °F 33.0 °F 33.8 °F 81% 29.63 in 10.0 mi West 9.2 mph 19.6 mph N/A   Overcast
12:55 AM 39.2 °F 32.0 °F 33.8 °F 81% 29.63 in 10.0 mi West 11.5 mph 23.0 mph N/A   Overcast
1:00 AM 39.2 °F 33.6 °F 33.8 °F 81% 29.63 in 10.0 mi West 8.1 mph 17.3 mph N/A   Overcast
1:18 AM 39.2 °F 33.6 °F 33.8 °F 81% 29.64 in 10.0 mi West 8.1 mph 18.4 mph N/A   Overcast
1:35 AM 39.2 °F 31.6 °F 33.8 °F 81% 29.64 in 10.0 mi West 12.7 mph 19.6 mph N/A   Overcast
1:55 AM 39.2 °F 33.0 °F 33.8 °F 81% 29.65 in 10.0 mi WNW 9.2 mph - N/A   Overcast
1:56 AM 39.2 °F 33.6 °F 33.8 °F 81% 29.65 in 10.0 mi West 8.1 mph - N/A   Overcast
2:15 AM 39.2 °F 33.0 °F 32.0 °F 75% 29.65 in 10.0 mi WNW 9.2 mph 17.3 mph N/A   Overcast
2:16 AM 39.2 °F 32.5 °F 32.0 °F 75% 29.65 in 10.0 mi WNW 10.4 mph 17.3 mph N/A   Overcast
2:39 AM 39.2 °F 33.6 °F 32.0 °F 75% 29.66 in 10.0 mi West 8.1 mph 17.3 mph N/A   Overcast
2:56 AM 37.4 °F 32.8 °F 33.8 °F 87% 29.66 in 10.0 mi West 5.8 mph - N/A   Light Drizzle
3:15 AM 37.4 °F 32.8 °F 33.8 °F 87% 29.66 in 10.0 mi West 5.8 mph - N/A   Overcast
3:16 AM 37.4 °F 32.8 °F 33.8 °F 87% 29.67 in 10.0 mi West 5.8 mph - N/A   Overcast
3:35 AM 37.4 °F 32.8 °F 33.8 °F 87% 29.67 in 10.0 mi West 5.8 mph - N/A   Overcast
3:36 AM 37.4 °F 32.1 °F 33.8 °F 87% 29.67 in 10.0 mi West 6.9 mph - N/A   Overcast
3:55 AM 37.4 °F 30.8 °F 33.8 °F 87% 29.68 in 10.0 mi West 9.2 mph - N/A   Overcast
3:59 AM 37.4 °F 30.3 °F 33.8 °F 87% 29.68 in 10.0 mi West 10.4 mph - N/A   Overcast
4:17 AM 37.4 °F 29.3 °F 33.8 °F 87% 29.68 in 10.0 mi West 12.7 mph 17.3 mph N/A   Overcast
4:36 AM 37.4 °F 32.1 °F 33.8 °F 87% 29.69 in 10.0 mi West 6.9 mph - N/A   Overcast
4:55 AM 37.4 °F 31.4 °F 32.0 °F 81% 29.70 in 10.0 mi West 8.1 mph - N/A   Overcast
4:56 AM 37.4 °F 31.4 °F 32.0 °F 81% 29.70 in 10.0 mi West 8.1 mph - N/A   Overcast
5:15 AM 37.4 °F 31.4 °F 32.0 °F 81% 29.71 in 10.0 mi West 8.1 mph - N/A   Overcast
5:38 AM 37.4 °F 31.4 °F 32.0 °F 81% 29.73 in 10.0 mi West 8.1 mph - N/A   Overcast
5:57 AM 37.4 °F 30.8 °F 32.0 °F 81% 29.73 in 10.0 mi West 9.2 mph - N/A   Overcast
6:16 AM 37.4 °F 32.8 °F 32.0 °F 81% 29.74 in 10.0 mi West 5.8 mph - N/A   Overcast
6:35 AM 37.4 °F 30.8 °F 32.0 °F 81% 29.74 in 10.0 mi WNW 9.2 mph - N/A   Overcast
6:36 AM 37.4 °F 30.8 °F 32.0 °F 81% 29.74 in 10.0 mi WNW 9.2 mph - N/A   Light Drizzle
6:55 AM 37.4 °F 33.8 °F 33.8 °F 87% 29.75 in 10.0 mi NNW 4.6 mph - N/A   Overcast
6:59 AM 37.4 °F 34.9 °F 33.8 °F 87% 29.75 in 10.0 mi NNW 3.5 mph - N/A   Overcast
7:17 AM 37.4 °F 33.8 °F 33.8 °F 87% 29.76 in 10.0 mi NNW 4.6 mph - N/A   Overcast
7:36 AM 37.4 °F 33.8 °F 33.8 °F 87% 29.76 in 10.0 mi NW 4.6 mph - N/A Rain Light Rain
7:55 AM 35.6 °F 32.8 °F 33.8 °F 93% 29.77 in 10.0 mi NW 3.5 mph - N/A   Overcast
7:56 AM 35.6 °F 32.8 °F 33.8 °F 93% 29.77 in 10.0 mi NW 3.5 mph - N/A   Overcast
8:15 AM 35.6 °F 30.7 °F 33.8 °F 93% 29.78 in 7.0 mi NW 5.8 mph - N/A Rain Light Rain
8:16 AM 35.6 °F 29.9 °F 33.8 °F 93% 29.78 in 7.0 mi NW 6.9 mph - N/A Rain Light Rain
8:38 AM 35.6 °F 32.8 °F 33.8 °F 93% 29.79 in 10.0 mi NW 3.5 mph - N/A   Overcast
8:56 AM 37.4 °F 32.8 °F 33.8 °F 87% 29.79 in 10.0 mi NW 5.8 mph - N/A   Mostly Cloudy
9:15 AM 39.2 °F 33.6 °F 33.8 °F 81% 29.80 in 10.0 mi NNW 8.1 mph - N/A   Mostly Cloudy
9:16 AM 39.2 °F 33.6 °F 33.8 °F 81% 29.80 in 10.0 mi NW 8.1 mph - N/A   Mostly Cloudy
9:35 AM 37.4 °F 30.3 °F 33.8 °F 87% 29.81 in 10.0 mi NNW 10.4 mph - N/A   Overcast
9:36 AM 37.4 °F 30.3 °F 33.8 °F 87% 29.81 in 10.0 mi NW 10.4 mph - N/A   Overcast
9:55 AM 37.4 °F 32.1 °F 33.8 °F 87% 29.81 in 10.0 mi NW 6.9 mph - N/A   Overcast
10:18 AM 39.2 °F 34.2 °F 33.8 °F 81% 29.81 in 10.0 mi WNW 6.9 mph - N/A   Overcast
10:35 AM 39.2 °F 35.0 °F 32.0 °F 75% 29.82 in 10.0 mi NW 5.8 mph - N/A   Overcast
10:55 AM 39.2 °F 33.6 °F 32.0 °F 75% 29.83 in 10.0 mi NW 8.1 mph - N/A   Overcast
10:56 AM 39.2 °F 33.6 °F 32.0 °F 75% 29.83 in 10.0 mi NW 8.1 mph - N/A   Overcast
11:15 AM 41.0 °F 36.4 °F 32.0 °F 70% 29.84 in 10.0 mi WNW 6.9 mph - N/A   Overcast
11:16 AM 41.0 °F 36.4 °F 32.0 °F 70% 29.84 in 10.0 mi NW 6.9 mph - N/A   Overcast
11:39 AM 41.0 °F 37.1 °F 32.0 °F 70% 29.85 in 10.0 mi West 5.8 mph - N/A   Overcast
11:56 AM 41.0 °F 34.7 °F 32.0 °F 70% 29.86 in 10.0 mi WNW 10.4 mph - N/A   Overcast
12:15 PM 41.0 °F 36.4 °F 32.0 °F 70% 29.86 in 10.0 mi West 6.9 mph - N/A   Overcast
12:16 PM 41.0 °F 35.8 °F 32.0 °F 70% 29.86 in 10.0 mi West 8.1 mph - N/A   Overcast
12:35 PM 41.0 °F 36.4 °F 32.0 °F 70% 29.87 in 10.0 mi WNW 6.9 mph - N/A   Overcast
12:36 PM 41.0 °F 37.1 °F 32.0 °F 70% 29.87 in 10.0 mi WNW 5.8 mph - N/A   Overcast
12:55 PM 41.0 °F 35.8 °F 32.0 °F 70% 29.87 in 10.0 mi WNW 8.1 mph - N/A   Overcast
1:00 PM 41.0 °F 34.7 °F 32.0 °F 70% 29.88 in 10.0 mi WNW 10.4 mph - N/A   Overcast
1:17 PM 42.8 °F 37.5 °F 32.0 °F 66% 29.88 in 10.0 mi West 9.2 mph - N/A   Overcast
1:35 PM 41.0 °F 35.8 °F 32.0 °F 70% 29.88 in 10.0 mi NW 8.1 mph - N/A   Overcast
1:55 PM 41.0 °F 35.2 °F 32.0 °F 70% 29.88 in 10.0 mi WNW 9.2 mph - N/A   Overcast
1:56 PM 41.0 °F 35.2 °F 32.0 °F 70% 29.88 in 10.0 mi WNW 9.2 mph - N/A   Overcast
2:15 PM 42.8 °F 38.6 °F 32.0 °F 66% 29.88 in 10.0 mi WNW 6.9 mph - N/A   Overcast
2:37 PM 42.8 °F 37.5 °F 32.0 °F 66% 29.89 in 10.0 mi WNW 9.2 mph - N/A   Overcast
2:55 PM 42.8 °F 38.6 °F 32.0 °F 66% 29.90 in 10.0 mi WNW 6.9 mph - N/A   Overcast
3:15 PM 42.8 °F 37.0 °F 32.0 °F 66% 29.91 in 10.0 mi NW 10.4 mph - N/A   Overcast
3:16 PM 42.8 °F 37.0 °F 32.0 °F 66% 29.91 in 10.0 mi NW 10.4 mph - N/A   Overcast
3:35 PM 42.8 °F 37.5 °F 32.0 °F 66% 29.91 in 10.0 mi WNW 9.2 mph - N/A   Overcast
3:36 PM 42.8 °F 37.5 °F 32.0 °F 66% 29.91 in 10.0 mi WNW 9.2 mph - N/A   Overcast
3:59 PM 42.8 °F 37.0 °F 32.0 °F 66% 29.92 in 10.0 mi WNW 10.4 mph - N/A   Mostly Cloudy
4:16 PM 44.6 °F 38.8 °F 32.0 °F 61% 29.92 in 10.0 mi NNW 11.5 mph - N/A   Scattered Clouds
4:35 PM 42.8 °F 38.0 °F 32.0 °F 66% 29.93 in 10.0 mi WNW 8.1 mph 17.3 mph N/A   Mostly Cloudy
4:55 PM 42.8 °F 38.0 °F 32.0 °F 66% 29.94 in 10.0 mi WNW 8.1 mph - N/A   Scattered Clouds
4:56 PM 42.8 °F 38.0 °F 32.0 °F 66% 29.94 in 10.0 mi WNW 8.1 mph - N/A   Scattered Clouds
5:15 PM 42.8 °F 39.3 °F 32.0 °F 66% 29.94 in 10.0 mi WNW 5.8 mph - N/A   Scattered Clouds
5:38 PM 42.8 °F 38.6 °F 32.0 °F 66% 29.96 in 10.0 mi WNW 6.9 mph - N/A   Clear
5:55 PM 41.0 °F 38.0 °F 32.0 °F 70% 29.96 in 10.0 mi WNW 4.6 mph - N/A   Clear
6:15 PM 41.0 °F 39.0 °F 32.0 °F 70% 29.97 in 10.0 mi WNW 3.5 mph - N/A   Clear
6:35 PM 39.2 °F 37.0 °F 32.0 °F 75% 29.99 in 10.0 mi WNW 3.5 mph - N/A   Clear
6:36 PM 39.2 °F 37.0 °F 32.0 °F 75% 29.99 in 10.0 mi West 3.5 mph - N/A   Clear
7:16 PM 39.2 °F - 32.0 °F 75% 30.01 in 10.0 mi Calm Calm - N/A   Overcast
7:36 PM 37.4 °F 34.9 °F 32.0 °F 81% 30.02 in 10.0 mi West 3.5 mph - N/A   Scattered Clouds
7:55 PM 37.4 °F 34.9 °F 32.0 °F 81% 30.03 in 10.0 mi West 3.5 mph - N/A   Clear
7:56 PM 37.4 °F 34.9 °F 32.0 °F 81% 30.03 in 10.0 mi West 3.5 mph - N/A   Clear
8:15 PM 37.4 °F 34.9 °F 32.0 °F 81% 30.03 in 10.0 mi WNW 3.5 mph - N/A   Clear
8:37 PM 35.6 °F 32.8 °F 32.0 °F 87% 30.05 in 10.0 mi West 3.5 mph - N/A   Scattered Clouds
8:56 PM 35.6 °F - 32.0 °F 87% 30.05 in 10.0 mi Calm Calm - N/A   Mostly Cloudy
9:15 PM 35.6 °F 32.8 °F 32.0 °F 87% 30.06 in 10.0 mi West 3.5 mph - N/A   Overcast
9:35 PM 37.4 °F 33.8 °F 32.0 °F 81% 30.06 in 10.0 mi NW 4.6 mph - N/A   Overcast
9:39 PM 37.4 °F 32.8 °F 32.0 °F 81% 30.06 in 10.0 mi NW 5.8 mph - N/A   Overcast
9:58 PM 39.2 °F 32.0 °F 32.0 °F 75% 30.07 in 10.0 mi NW 11.5 mph 16.1 mph N/A   Overcast
10:15 PM 39.2 °F 35.9 °F 32.0 °F 75% 30.08 in 10.0 mi NW 4.6 mph - N/A   Overcast
10:35 PM 39.2 °F 35.0 °F 32.0 °F 75% 30.08 in 10.0 mi NW 5.8 mph - N/A   Overcast
10:36 PM 39.2 °F 35.0 °F 32.0 °F 75% 30.08 in 10.0 mi NW 5.8 mph - N/A   Overcast
10:55 PM 39.2 °F 35.0 °F 32.0 °F 75% 30.09 in 10.0 mi NW 5.8 mph - N/A   Overcast
10:56 PM 39.2 °F 35.0 °F 32.0 °F 75% 30.09 in 10.0 mi NW 5.8 mph - N/A   Overcast
11:18 PM 39.2 °F 35.0 °F 32.0 °F 75% 30.09 in 10.0 mi NW 5.8 mph - N/A   Overcast
11:36 PM 39.2 °F 35.9 °F 32.0 °F 75% 30.10 in 10.0 mi NW 4.6 mph - N/A   Overcast
11:55 PM 37.4 °F 32.1 °F 32.0 °F 81% 30.11 in 10.0 mi WNW 6.9 mph - N/A   Overcast